Weather History for KSTC - July, 2012

Change the Weather History Date:

Wednesday, July 4, 2012

  Actual Average Record
Temperature  
Mean Temperature 87 °F 70 °F  
Max Temperature 97 °F 82 °F 97 °F (2012)
Min Temperature 76 °F 58 °F 43 °F (1972)
Degree Days  
Heating Degree Days 0 1  
Month to date heating degree days 0 4  
Since 1 June heating degree days 30 82  
Since 1 July heating degree days 0 4  
Cooling Degree Days 22 6  
Month to date cooling degree days 69 23  
Year to date cooling degree days 270 143  
Since 1 June cooling degree days 219 118  
Growing Degree Days 36 (Base 50)    
Moisture  
Dew Point 74 °F    
Average Humidity 71    
Maximum Humidity 91    
Minimum Humidity 51    
Precipitation  
Precipitation 0.00 in 0.12 in 1.77 in (1935)
Month to date precipitation 0.81 0.47  
Year to date precipitation 17.49 12.95  
Snow  
Snow 0.00 in 0.00 in 0.00 in ()
Month to date snowfall 0.0 0.0  
Since 1 June snowfall 0.0 0.0  
Since 1 July snowfall 0.0 0.0  
Snow Depth 0.00 in    
Sea Level Pressure  
Sea Level Pressure 29.74 in    
Wind  
Wind Speed 8 mph (SE)    
Max Wind Speed 17 mph    
Max Gust Speed 22 mph    
Visibility 9 miles    
Events      
T = Trace of Precipitation, MM = Missing Value Source: NWS Daily Summary

Daily Weather History Graph

Daily Weather History Graph

Search for Another Location

Airport or City:

Trip Planner

Search our weather history database for the weather conditions in past years. The results will help you decide how hot, cold, wet, or windy it might be!

Date:

Astronomy

Jul. 04, 2012 Rise Set
Actual Time 5:33 AM CDT 9:07 PM CDT
Civil Twilight 4:55 AM CDT 9:45 PM CDT
Nautical Twilight 4:06 AM CDT 10:34 PM CDT
Astronomical Twilight 2:59 AM CDT 11:40 PM CDT
Moon 9:40 PM CDT (7/4) 6:41 AM CDT (7/4)
Length of Visible Light 16h 49m
Length of Day
15h 34m
Full, 99% of the Moon is Illuminated
Jul 4
Full
Jul 10
Last Quarter
Jul 18
New
Jul 26
First Quarter
Aug 1
Full

Hourly Weather History & Observations

Time (CDT) Temp. Heat Index Dew Point Humidity Pressure Visibility Wind Dir Wind Speed Gust Speed Precip Events Conditions
12:53 AM 80.1 °F 84.5 °F 73.9 °F 81% 29.76 in 10.0 mi East 4.6 mph - N/A   Mostly Cloudy
1:53 AM 79.0 °F - 73.9 °F 84% 29.75 in 10.0 mi East 4.6 mph - N/A   Clear
2:53 AM 78.1 °F - 73.0 °F 84% 29.74 in 10.0 mi East 3.5 mph - N/A   Clear
3:53 AM 77.0 °F - 73.0 °F 88% 29.74 in 9.0 mi East 6.9 mph - N/A   Clear
4:53 AM 77.0 °F - 73.0 °F 88% 29.74 in 8.0 mi East 4.6 mph - N/A   Clear
5:53 AM 77.0 °F - 73.9 °F 90% 29.74 in 5.0 mi East 4.6 mph - N/A   Clear
6:53 AM 79.0 °F - 75.0 °F 88% 29.73 in 6.0 mi Calm Calm - N/A   Clear
7:53 AM 81.0 °F 87.3 °F 75.9 °F 85% 29.73 in 7.0 mi SE 5.8 mph - N/A   Clear
8:53 AM 84.9 °F 92.1 °F 73.9 °F 69% 29.73 in 10.0 mi South 11.5 mph - N/A   Clear
9:53 AM 86.0 °F 93.8 °F 73.9 °F 67% 29.73 in 10.0 mi Variable 6.9 mph - N/A   Clear
10:53 AM 89.1 °F 98.0 °F 73.9 °F 61% 29.74 in 10.0 mi South 6.9 mph - N/A   Clear
11:53 AM 91.0 °F 100.4 °F 73.9 °F 57% 29.75 in 10.0 mi SSE 9.2 mph - N/A   Clear
12:53 PM 93.0 °F 103.2 °F 73.9 °F 54% 29.73 in 10.0 mi South 10.4 mph 17.3 mph N/A   Clear
1:53 PM 95.0 °F 108.2 °F 75.9 °F 54% 29.71 in 10.0 mi SSE 11.5 mph - N/A   Clear
2:53 PM 96.1 °F 108.6 °F 75.0 °F 51% 29.71 in 10.0 mi South 11.5 mph 21.9 mph N/A   Clear
3:53 PM 96.1 °F 108.6 °F 75.0 °F 51% 29.72 in 10.0 mi South 12.7 mph 20.7 mph N/A   Clear
4:53 PM 96.8 °F 109.6 °F 75.2 °F 50% 29.72 in 10.0 mi South 12.7 mph - N/A   Clear
5:53 PM 95.0 °F 106.7 °F 75.0 °F 52% 29.71 in 10.0 mi South 10.4 mph - N/A   Clear
6:53 PM 93.0 °F 104.6 °F 75.0 °F 56% 29.71 in 10.0 mi South 8.1 mph - N/A   Clear
7:53 PM 90.0 °F 100.2 °F 75.0 °F 61% 29.71 in 10.0 mi South 5.8 mph - N/A   Clear
8:53 PM 86.0 °F 95.1 °F 75.2 °F 70% 29.73 in 10.0 mi SE 3.5 mph - N/A   Clear
9:53 PM 84.9 °F 92.1 °F 73.9 °F 69% 29.78 in 10.0 mi East 6.9 mph - N/A   Overcast
10:53 PM 78.1 °F - 69.1 °F 74% 29.78 in 10.0 mi East 11.5 mph - N/A   Clear
11:53 PM 77.0 °F - 69.1 °F 76% 29.80 in 10.0 mi East 9.2 mph - N/A   Scattered Clouds